Find Starlink 36736

NORAD ID: 67911 Int'l Des: 2026-036 Owner: SPXS Country: US Constellation: starlink operational
LEOCIRCULAR

Live-Position

3D-Globus wird geladen...

Über Starlink 36736

Beschreibung wird geladen...

Nächste Überflüge

Passes for default location (London). Set your location on the main map for personalized predictions.

Höhenverlauf

Loading altitude history...

Zweizeiliger Elementsatz

1 67911U 26036H 26107.14933029 .00009021 00000-0 33691-3 0 9995
2 67911 43.0012 28.0829 0001396 268.3109 91.7583 15.27583615 9604
Epoch: 17. Apr. 2026 • Age: 12 hours

Aktueller Status

Höhe 484.7 km
Geschwindigkeit 7.63 km/s
Subsatellitenpunkt 32.12°N, 90.62°E
Startdatum 22. Feb. 2026
Alter 0.1 years
Typ internet

Technische Details

Klassifizierung Payload
Masse 575.00 kg
Trockenmasse 530.00 kg
Gesamtmasse 575.00 kg
Länge 0.30 m
Durchmesser 4.10 m
Spannweite 29.00 m
Form Box + pan
Hersteller SPXS
Bus-Typ Starlink V2MO
Phasenstatus In Orbit
Besitzer/Staat SPXS/US

Most Searched